Probability
0 0 0 0 0 0 0 0 0 0 0 0 0 3 0 3 3 3 3 6 6 6 6 6 10 13 6 6 10 3 3 13 10 6 3 10 10 10 6 3 3 0 0 3
0 0 0 0 0 0 0 0 0 0 0 0 0 3 0 3 3 3 6 6 10 6 10 10 6 10 10 6 10 3 6 13 13 16 3 6 10 3 3 0 0 3 3 0
0 0 0 0 0 0 0 0 0 0 3 0 0 0 0 0 0 6 10 10 10 6 3 3 13 13 6 6 16 10 6 10 13 10 6 13 3 3 3 3 3 3 3 3
0 0 0 0 0 0 0 0 0 0 0 0 0 0 0 0 0 3 3 3 6 0 3 6 13 16 10 13 13 10 10 6 10 6 6 10 6 3 3 6 3 3 3 3
0 0 0 0 0 0 0 0 0 0 0 0 0 0 0 0 3 3 3 3 0 0 0 3 10 13 13 10 13 10 6 10 10 3 3 10 6 3 3 0 3 6 3 3
0 0 0 0 0 0 0 0 0 0 0 0 0 0 0 0 0 3 3 3 0 0 0 6 10 13 10 6 13 13 10 6 13 6 3 6 10 3 3 3 6 3 3 6
0 0 0 0 0 0 0 0 0 0 0 0 0 0 0 0 0 3 6 6 0 0 0 6 10 16 13 13 13 19 13 13 10 10 10 6 13 3 3 3 3 0 3 6
0 0 0 0 0 0 0 0 0 0 0 0 0 3 3 3 3 3 3 3 0 3 3 6 6 13 16 16 16 16 16 13 13 13 10 6 13 6 3 3 3 0 3 6
0 0 0 0 0 0 0 0 0 0 0 0 0 3 3 3 3 3 3 3 10 13 10 6 6 10 10 13 10 10 6 16 16 16 13 6 6 10 6 3 3 0 0 0
0 0 0 0 0 0 0 0 0 0 0 0 0 0 3 3 3 3 0 3 6 13 10 6 6 6 10 13 13 10 3 6 10 13 13 10 6 10 10 6 6 3 3 0
0 0 0 0 0 0 0 0 0 0 0 0 0 0 0 3 6 3 3 3 6 10 10 6 10 13 6 10 16 10 10 13 16 13 10 16 6 10 13 13 10 6 3 0
0 0 0 0 0 0 0 0 0 0 0 0 0 0 0 3 3 3 3 3 6 6 6 6 13 13 23 29 23 16 16 19 16 13 16 19 19 16 16 16 16 16 13 6
0 0 0 0 0 0 0 0 0 0 0 0 0 0 0 0 0 0 3 3 6 10 10 13 13 16 23 23 23 16 23 16 19 19 16 16 16 23 23 19 23 19 16 13
0 0 0 0 0 0 0 0 0 0 0 0 0 0 3 0 0 0 0 3 6 6 13 16 16 16 19 26 26 23 26 19 19 19 16 10 19 19 19 23 23 16 16 19
0 0 0 0 0 0 0 0 0 0 0 0 0 0 0 0 0 0 0 3 3 6 13 19 19 13 16 23 23 26 26 23 19 19 19 10 13 19 19 26 29 16 19 16
0 0 0 0 0 0 6 6 6 6 6 0 0 0 0 0 0 0 0 13 16 13 13 19 16 16 13 13 26 29 35 29 23 19 16 13 16 16 26 32 29 23 23 16
0 0 0 0 0 0 3 3 6 6 6 6 3 3 3 6 3 3 3 10 10 16 13 13 10 10 10 16 19 23 26 26 23 26 26 19 23 26 29 32 29 26 23 19
0 0 0 0 0 0 3 3 3 6 6 3 3 3 3 6 3 3 3 3 13 16 16 10 6 6 6 6 16 23 19 26 29 23 23 19 26 26 29 26 26 26 19 19
0 0 0 0 0 0 0 0 0 3 3 0 3 3 6 3 3 3 10 10 13 10 13 6 0 10 10 13 19 19 19 23 26 19 19 23 26 26 29 26 26 23 16 16
0 0 0 0 0 0 0 0 0 3 3 0 3 3 3 3 0 3 3 3 10 10 10 3 6 6 10 13 16 19 19 29 23 23 23 23 23 23 23 19 23 19 16 19
0 0 0 0 0 0 0 0 0 0 3 0 0 3 3 3 3 3 3 3 6 10 13 10 13 16 13 10 13 19 19 23 23 26 19 19 19 19 19 23 23 19 16 16
0 0 0 0 0 0 0 0 0 0 0 0 0 3 3 3 3 3 3 0 0 0 6 6 13 16 16 16 16 16 19 19 19 26 23 23 19 19 16 19 19 23 16 16
0 0 0 0 0 0 0 0 0 0 0 0 0 0 3 3 3 0 0 0 0 0 6 10 6 10 16 19 23 23 19 23 29 32 26 23 23 19 19 16 19 19 13 19
0 0 0 0 0 0 0 0 0 0 0 0 0 0 0 3 3 0 0 0 0 0 3 6 10 13 13 10 13 19 19 19 32 32 26 26 19 23 19 19 16 16 19 16
0 0 0 0 0 0 0 0 0 0 0 0 0 0 0 0 0 0 0 0 0 0 6 6 6 6 13 13 16 13 13 19 26 35 26 23 19 19 19 19 23 16 16 13
0 0 0 0 0 0 0 0 0 0 0 0 0 0 0 0 0 0 0 3 3 6 10 10 6 6 6 10 13 13 16 19 23 29 29 19 23 23 19 19 16 6 3 0
Height
5902 5905 5906 5907 5908 5909 5909 5909 5910 5910 5910 5910 5910 5910 5910 5910 5910 5910 5910 5910 5909 5909 5908 5908 5907 5907 5906 5905 5905 5904 5903 5903 5902 5901 5901 5900 5900 5900 5899 5899 5899 5899 5899 5899
5901 5903 5904 5905 5906 5906 5907 5908 5909 5909 5909 5909 5909 5909 5909 5909 5910 5910 5909 5909 5909 5909 5908 5908 5907 5907 5906 5906 5905 5904 5903 5903 5902 5902 5901 5901 5900 5900 5900 5899 5899 5899 5899 5899
5899 5902 5901 5902 5904 5905 5905 5906 5907 5907 5907 5907 5908 5909 5908 5908 5908 5908 5908 5908 5908 5907 5907 5906 5906 5906 5905 5905 5905 5904 5903 5903 5902 5901 5901 5901 5900 5900 5899 5899 5899 5899 5899 5899
5896 5898 5898 5900 5901 5902 5903 5904 5904 5904 5905 5905 5906 5906 5907 5907 5906 5906 5907 5907 5906 5906 5906 5905 5904 5904 5904 5904 5904 5903 5903 5902 5901 5901 5900 5900 5900 5899 5899 5899 5898 5898 5898 5898
5893 5894 5895 5897 5899 5899 5900 5901 5901 5901 5902 5903 5903 5904 5905 5905 5904 5905 5905 5905 5905 5905 5904 5903 5903 5903 5902 5902 5902 5902 5901 5901 5900 5900 5899 5899 5899 5898 5898 5898 5897 5897 5897 5896
5889 5891 5892 5894 5895 5896 5897 5898 5898 5898 5899 5900 5901 5901 5902 5903 5903 5903 5903 5903 5903 5902 5902 5901 5901 5901 5901 5901 5901 5900 5899 5899 5898 5898 5898 5897 5897 5897 5896 5896 5896 5895 5895 5895
5886 5887 5889 5890 5891 5893 5894 5895 5895 5895 5896 5897 5898 5897 5900 5900 5900 5900 5900 5900 5900 5900 5899 5899 5898 5899 5898 5898 5898 5897 5896 5896 5896 5896 5895 5895 5895 5895 5895 5894 5894 5894 5893 5893
5881 5884 5885 5886 5888 5889 5890 5891 5892 5893 5893 5894 5894 5894 5897 5897 5897 5897 5897 5897 5896 5896 5896 5896 5896 5896 5896 5895 5895 5894 5894 5894 5893 5893 5892 5892 5892 5892 5892 5892 5892 5891 5891 5890
5877 5880 5881 5882 5883 5885 5885 5887 5888 5888 5888 5889 5890 5891 5892 5892 5893 5893 5893 5893 5893 5893 5893 5893 5893 5892 5893 5893 5892 5892 5891 5891 5891 5890 5890 5889 5889 5889 5889 5889 5888 5888 5888 5887
5872 5875 5877 5877 5879 5880 5881 5883 5883 5883 5883 5884 5885 5886 5888 5888 5889 5890 5889 5889 5889 5889 5890 5889 5890 5889 5890 5890 5889 5889 5888 5888 5888 5888 5887 5887 5886 5886 5885 5885 5885 5885 5884 5884
5867 5869 5872 5873 5874 5875 5876 5878 5878 5879 5879 5880 5880 5884 5884 5884 5884 5885 5885 5885 5885 5885 5885 5886 5886 5886 5886 5886 5885 5885 5885 5884 5884 5884 5883 5883 5882 5882 5882 5881 5881 5881 5880 5880
5862 5864 5866 5868 5869 5870 5871 5872 5873 5875 5875 5875 5875 5880 5879 5879 5879 5880 5881 5881 5881 5881 5881 5881 5881 5882 5882 5881 5881 5881 5881 5881 5880 5879 5879 5879 5879 5878 5878 5877 5876 5876 5876 5875
5857 5858 5860 5862 5865 5865 5865 5867 5868 5869 5869 5870 5871 5875 5874 5874 5875 5875 5876 5876 5877 5877 5877 5877 5877 5877 5877 5877 5877 5877 5877 5876 5876 5875 5875 5875 5874 5874 5874 5873 5873 5872 5871 5870
5851 5852 5855 5857 5857 5859 5860 5861 5862 5863 5863 5864 5866 5868 5869 5869 5870 5870 5871 5871 5872 5872 5872 5872 5873 5873 5873 5872 5872 5872 5872 5872 5871 5871 5870 5870 5869 5869 5869 5869 5869 5868 5866 5866
5845 5846 5847 5849 5850 5852 5853 5854 5855 5856 5857 5858 5860 5861 5863 5864 5864 5865 5865 5866 5866 5867 5867 5867 5867 5867 5867 5867 5866 5866 5867 5867 5866 5866 5865 5864 5864 5864 5864 5864 5863 5863 5862 5862
5837 5839 5840 5842 5843 5844 5845 5847 5848 5849 5851 5852 5853 5855 5857 5857 5858 5859 5860 5860 5861 5861 5862 5862 5862 5862 5861 5861 5861 5861 5862 5862 5861 5861 5860 5860 5859 5859 5858 5858 5858 5858 5857 5857
5830 5832 5833 5834 5835 5835 5836 5839 5841 5843 5844 5846 5847 5849 5850 5851 5852 5853 5854 5854 5855 5855 5856 5856 5856 5856 5856 5856 5856 5856 5856 5856 5856 5855 5855 5855 5854 5854 5853 5853 5853 5852 5852 5851
5822 5824 5824 5825 5827 5827 5831 5832 5834 5835 5837 5838 5839 5841 5843 5844 5845 5846 5847 5848 5848 5849 5849 5850 5850 5850 5850 5850 5850 5850 5850 5850 5849 5849 5849 5849 5849 5848 5848 5848 5847 5846 5846 5845
5813 5815 5815 5816 5817 5818 5822 5824 5825 5827 5829 5830 5832 5833 5835 5837 5838 5839 5840 5841 5841 5842 5843 5843 5843 5844 5844 5844 5844 5844 5844 5844 5843 5843 5843 5843 5843 5842 5842 5842 5841 5841 5840 5840
5804 5805 5807 5807 5808 5809 5814 5816 5817 5819 5820 5823 5824 5826 5827 5829 5831 5833 5833 5833 5834 5835 5835 5836 5836 5837 5837 5838 5837 5837 5838 5838 5838 5838 5837 5837 5836 5836 5836 5836 5835 5835 5834 5833
5795 5796 5797 5798 5798 5800 5804 5806 5808 5811 5813 5814 5815 5817 5819 5820 5823 5824 5825 5826 5826 5827 5828 5828 5829 5830 5830 5831 5831 5831 5831 5832 5832 5831 5831 5830 5830 5830 5830 5829 5828 5828 5827 5827
5786 5787 5788 5789 5790 5794 5795 5797 5799 5801 5802 5804 5806 5808 5810 5811 5813 5814 5816 5817 5818 5819 5820 5820 5821 5822 5823 5824 5824 5824 5825 5825 5824 5824 5823 5823 5823 5823 5823 5822 5822 5821 5820 5820
5777 5779 5779 5781 5784 5784 5785 5787 5788 5790 5792 5794 5796 5798 5800 5802 5804 5805 5807 5808 5809 5810 5811 5812 5813 5814 5815 5816 5816 5817 5817 5818 5817 5817 5817 5817 5816 5816 5816 5815 5814 5814 5813 5813
5767 5768 5770 5771 5773 5774 5776 5777 5779 5781 5783 5785 5787 5789 5791 5792 5794 5796 5797 5799 5800 5801 5802 5803 5804 5805 5806 5807 5808 5809 5809 5810 5810 5810 5810 5809 5809 5809 5808 5807 5807 5806 5805 5805
5758 5759 5760 5761 5763 5765 5766 5767 5769 5771 5773 5775 5777 5779 5781 5783 5784 5786 5788 5789 5790 5792 5793 5794 5795 5796 5797 5798 5799 5800 5800 5801 5801 5801 5802 5802 5802 5801 5800 5800 5800 5799 5798 5798
5749 5749 5751 5752 5753 5754 5756 5757 5759 5761 5763 5765 5767 5769 5771 5772 5774 5776 5777 5779 5780 5781 5782 5783 5785 5786 5788 5788 5790 5791 5791 5792 5792 5793 5793 5793 5793 5792 5792 5792 5792 5791 5790 5790
Wind_Speed
14 12 10 10 10 9 9 8 7 6 6 5 5 4 4 4 3 3 3 2 2 2 2 2 3 3 4 4 5 5 5 5 4 3 3 3 3 3 3 3 2 1 1 1
15 13 12 12 12 12 11 10 9 9 8 8 7 6 5 5 4 5 4 4 3 3 3 2 2 2 2 2 3 3 4 4 4 3 2 2 2 2 2 2 1 1 1 0
15 14 15 15 14 13 12 12 11 11 10 10 8 7 6 6 6 7 6 5 4 4 3 3 3 2 2 2 2 2 3 4 3 3 2 1 1 1 1 1 1 1 1 1
17 16 17 16 15 15 15 14 14 13 13 12 11 9 9 8 8 8 7 6 6 6 5 4 4 4 3 4 3 3 3 4 4 3 3 2 1 1 1 2 2 2 2 2
18 18 18 17 16 16 15 16 16 15 14 13 12 12 10 10 9 9 8 7 7 7 7 6 6 6 5 5 5 5 5 5 5 5 4 3 3 3 3 3 4 4 4 3
18 18 18 17 17 17 17 17 17 16 15 14 13 14 11 10 9 9 9 9 8 9 9 9 8 7 7 7 6 7 7 6 6 6 6 5 5 5 5 5 5 5 5 4
18 17 18 18 18 18 18 18 18 17 16 15 14 15 14 11 11 11 11 11 11 10 10 10 9 8 9 9 9 9 8 7 7 8 8 6 6 6 6 7 6 6 6 6
19 17 18 18 18 18 20 20 19 19 18 16 16 16 13 13 13 13 12 12 12 11 11 10 9 9 9 10 10 10 10 9 8 8 8 7 7 8 8 8 8 9 9 9
20 19 18 18 18 19 20 20 20 20 19 19 18 17 14 14 14 15 14 14 14 13 11 11 11 11 11 11 10 11 11 10 9 9 8 9 9 9 10 10 10 10 11 11
21 20 19 20 20 21 21 20 20 20 20 20 20 18 17 17 16 16 15 15 15 15 14 13 12 12 13 12 11 12 12 10 10 10 10 10 11 11 11 12 12 12 12 12
22 22 20 22 23 22 22 21 21 21 22 22 22 19 17 18 17 17 16 15 14 16 16 14 14 13 13 14 13 13 13 12 12 12 12 12 12 12 12 13 14 13 13 13
23 24 23 23 24 24 24 24 23 23 23 23 23 20 17 18 18 18 17 16 15 16 17 16 15 14 14 15 15 14 14 14 13 13 13 13 13 14 14 14 15 15 14 14
24 24 24 24 25 25 26 26 25 25 26 25 25 22 20 20 19 19 19 17 17 17 17 16 16 16 16 16 16 16 16 15 15 15 14 14 15 15 15 15 15 16 16 16
26 26 26 25 24 25 27 27 27 27 28 27 26 24 22 21 21 21 21 20 18 18 17 16 16 16 17 17 17 17 16 16 17 17 17 17 16 16 16 17 17 17 17 17
28 28 28 27 26 26 27 28 29 29 29 29 27 26 23 23 22 21 20 20 18 18 18 17 17 16 17 17 17 17 17 17 18 18 19 19 17 17 18 18 18 17 17 17
31 31 31 30 29 29 29 29 31 31 31 31 29 28 26 25 23 21 20 20 19 18 18 17 17 17 18 17 17 18 18 18 18 18 18 18 18 18 18 18 18 18 18 18
33 32 33 33 32 32 32 31 30 32 33 33 31 29 28 26 25 24 22 21 19 19 19 18 18 18 18 18 18 19 19 19 19 19 19 20 20 20 19 19 20 20 20 20
34 34 35 35 35 36 34 32 31 32 32 32 32 31 29 28 26 24 23 22 22 21 20 20 19 19 19 19 18 19 19 19 20 20 20 21 21 20 19 20 20 20 20 20
34 35 35 36 37 37 35 33 32 32 33 32 32 31 29 28 27 26 25 25 24 23 23 23 21 20 20 20 20 20 20 20 21 21 21 21 21 21 21 20 21 21 21 21
34 34 35 36 37 37 34 33 33 33 33 32 33 32 30 29 28 27 26 26 26 25 25 24 23 23 22 22 21 21 21 21 22 21 21 21 20 20 20 21 22 22 22 22
34 35 35 36 36 36 34 34 33 33 33 33 33 33 32 31 30 29 29 28 27 27 27 26 25 25 24 24 23 23 21 21 22 22 22 21 22 22 22 23 23 23 23 23
34 35 36 36 37 37 36 34 34 33 33 33 33 33 33 32 32 32 31 29 28 28 28 27 27 26 25 24 24 23 22 22 22 23 23 22 22 23 23 24 24 24 24 24
34 35 36 36 37 37 36 35 34 33 32 32 33 33 33 33 33 33 32 30 29 29 28 28 28 27 26 25 24 24 22 23 23 24 23 23 23 23 24 25 25 25 26 25
33 34 35 36 36 35 35 35 35 35 34 33 33 33 33 33 33 33 32 32 31 30 29 29 28 28 28 28 26 25 24 25 25 25 25 25 26 26 26 26 27 27 27 26
33 33 33 34 34 34 34 35 35 35 34 34 34 34 33 33 33 32 32 32 32 32 31 31 31 29 28 28 28 28 27 27 27 26 27 27 27 28 28 28 28 28 28 28
32 33 33 33 34 34 34 34 35 35 34 34 34 34 34 33 33 33 33 32 32 33 33 32 31 30 30 30 30 31 30 30 30 29 29 29 29 30 30 30 30 29 29 29
Wind_Direction
232 232 234 236 240 245 243 244 249 256 268 277 281 281 279 278 310 336 347 343 348 340 347 17 28 26 34 44 43 47 43 36 40 52 59 62 64 66 56 57 86 129 109 111
233 231 234 237 243 249 248 249 251 252 260 268 271 264 265 270 289 293 292 292 283 291 293 300 324 343 0 21 34 32 24 23 24 27 34 57 61 63 54 47 45 17 347 17
235 232 235 239 244 249 251 254 254 253 254 261 267 260 260 264 272 278 280 280 270 276 278 267 267 285 292 301 321 349 359 359 354 349 342 5 38 15 17 8 342 325 321 294
234 232 238 243 246 249 249 254 257 254 254 258 263 263 261 262 267 274 281 279 271 266 275 269 260 268 283 282 280 302 317 322 319 314 312 293 272 298 316 317 302 290 291 290
235 235 239 243 246 247 249 253 257 256 259 260 263 267 265 268 269 272 278 271 266 265 264 263 262 266 276 280 279 284 290 290 291 289 285 279 273 277 282 284 280 274 276 287
235 238 242 244 244 246 248 251 256 258 263 266 268 269 266 264 268 266 271 267 262 263 260 258 256 265 275 283 284 287 285 276 276 277 275 273 276 277 275 274 273 272 274 281
236 238 243 244 243 246 248 251 255 259 264 270 270 268 268 268 270 268 270 269 266 263 259 261 260 265 271 276 279 279 273 268 275 273 270 268 272 276 273 273 272 270 272 279
238 238 243 245 246 249 250 250 254 261 264 266 264 266 270 269 268 266 270 273 269 265 262 262 264 263 267 274 277 276 272 267 272 275 272 268 268 272 273 271 270 269 272 278
241 239 240 244 245 245 248 251 255 260 263 265 265 267 265 270 273 268 268 269 267 266 264 262 262 265 270 271 277 274 271 270 272 274 277 276 270 270 271 271 270 272 275 277
242 242 237 240 241 244 248 251 254 259 263 265 267 268 268 271 274 270 271 274 268 265 264 265 265 265 270 271 274 275 270 267 273 277 276 273 270 272 274 273 271 272 272 273
244 245 239 239 240 243 246 250 255 260 263 266 269 270 272 273 276 274 272 275 272 268 266 265 264 265 269 272 274 276 273 271 272 272 274 273 273 273 274 269 267 268 270 272
247 248 243 241 241 243 246 249 254 259 263 266 270 273 275 273 275 274 274 273 271 272 272 267 264 265 269 271 272 273 273 272 271 272 273 272 272 272 271 271 269 267 272 277
249 250 249 244 243 246 249 251 253 257 262 266 269 273 273 275 274 273 273 271 271 269 272 270 268 269 272 273 271 269 270 271 273 274 272 270 271 270 271 273 272 274 278 279
250 251 252 252 251 252 252 252 253 256 261 266 269 272 271 275 277 274 273 273 271 270 270 269 270 272 273 273 273 271 270 273 274 272 270 270 268 266 269 272 275 278 281 280
252 254 254 254 256 257 256 253 253 256 261 265 268 269 271 274 276 275 272 270 271 272 271 271 272 274 274 269 269 271 268 271 275 276 272 268 266 268 269 271 273 277 279 278
253 255 256 257 258 259 258 257 256 257 260 265 268 269 268 271 273 273 273 271 271 270 269 269 270 274 276 275 272 269 267 268 269 273 272 270 271 272 271 271 272 275 277 279
253 256 258 259 260 260 259 258 259 260 262 264 266 267 268 268 269 271 271 272 270 267 264 266 267 271 273 274 273 270 270 268 265 267 270 271 272 272 273 273 272 273 273 276
253 254 257 259 259 260 261 260 259 260 261 261 263 264 265 265 267 269 270 269 267 267 265 265 266 268 270 273 273 268 268 270 268 267 269 271 272 272 274 275 274 273 273 274
255 255 257 259 260 261 259 260 262 261 260 260 262 263 263 263 264 264 266 266 266 265 268 266 263 264 267 268 270 270 269 270 272 272 271 272 275 274 274 275 275 276 276 277
257 256 256 258 259 260 259 260 263 263 262 261 262 262 261 261 262 262 263 265 264 265 267 265 262 263 266 267 268 271 272 272 271 271 272 272 273 272 273 274 275 276 276 276
257 256 257 257 259 259 260 261 262 261 262 261 261 262 262 262 262 261 262 264 263 263 265 264 263 262 263 264 266 269 269 271 272 271 270 269 270 270 272 273 274 275 277 278
257 257 257 257 258 259 261 262 261 261 260 259 259 260 261 262 262 261 262 263 262 260 261 262 264 264 262 263 265 267 268 271 271 270 270 270 269 270 272 274 275 275 277 278
257 257 256 256 258 259 261 261 259 259 259 259 259 259 260 261 261 261 262 261 261 260 260 262 263 263 262 263 264 264 267 268 269 270 271 272 271 272 273 274 274 275 277 277
259 258 257 257 256 258 259 259 258 258 258 259 259 259 261 262 261 261 261 260 259 260 261 262 263 262 261 261 264 262 263 267 269 271 271 270 271 273 274 276 277 276 276 276
259 259 259 258 257 258 257 258 258 258 258 258 258 259 261 260 260 260 260 260 260 260 259 259 260 261 260 261 262 263 264 267 269 271 272 271 272 273 274 275 277 277 276 277
258 259 259 259 257 257 256 256 257 257 257 257 258 259 260 259 258 260 261 261 261 261 259 258 259 260 261 262 264 264 265 266 268 270 272 273 273 273 274 276 275 275 277 276